Hourly Data Report for October 05, 2017

All times are specified in Local Standard Time (LST). Add 1 hour to adjust for Daylight Saving Time where and when it is observed.

MORDEN CDA CS
MANITOBA

49°11'15.500" N
98°05'02.200" W
297.50 m
5021849
71564
XMD

Download Data

Hourly Data (October 2017)
Hourly Data Report for October 5, 2017
Temp Definition
°C
Dew Point Temp Definition
°C
Rel Hum Definition
%
Wind Dir Definition
10's deg

Wind Spd Definition
km/h
Visibility Definition
km
Stn Press Definition
kPa
Hmdx Definition


Wind Chill Definition


Weather Definition


TIME
00:00 6.8 0.9 66 28 16   98.35     LegendNANA
01:00 5.9 0.8 70 27 13   98.37     LegendNANA
02:00 5.4 0.1 69 29 15   98.38     LegendNANA
03:00 4.7 -0.3 70 27 9   98.41     LegendNANA
04:00 3.6 -0.4 75 28 8   98.42     LegendNANA
05:00 3.0 -0.7 77 30 8   98.43     LegendNANA
06:00 3.3 0.2 80 30 8   98.46     LegendNANA
07:00 3.2 0.2 81 30 8   98.50     LegendNANA
08:00 6.1 1.4 72 32 7   98.53     LegendNANA
09:00 8.0 2.2 67 35 9   98.55     LegendNANA
10:00 9.8 2.8 62 35 5   98.55     LegendNANA
11:00 11.2 3.2 58 3 5   98.53     LegendNANA
12:00 11.8 2.7 53 31 10   98.51     LegendNANA
13:00 12.8 2.5 50 32 8   98.45     LegendNANA
14:00 13.3 1.5 45 33 8   98.40     LegendNANA
15:00 13.9 1.5 43 33 7   98.36     LegendNANA
16:00 14.1 1.6 43 34 8   98.32     LegendNANA
17:00 13.5 0.7 42 33 9   98.30     LegendNANA
18:00 10.8 1.0 51 31 3   98.27     LegendNANA
19:00 7.6 2.2 68 29 4   98.29     LegendNANA
20:00 4.8 1.2 77 23 5   98.28     LegendNANA
21:00 3.9 0.6 79 24 6   98.28     LegendNANA
22:00 3.6 0.6 81 25 7   98.26     LegendNANA
23:00 4.0 -0.1 75 23 8   98.24     LegendNANA

Notes on Data Quality.

Legend

  • E = Estimated
  • M = Missing
  • NA = Not Available
  • ‡ = Partner data that is not subject to review by the National Climate Archives
Date modified: